| time (UTC) | temp F | wind direction | speed knots | gust knots | rain 1hr in | rain 24hr in | rain mn in | humidity % | barometer mb |
| 20260505063102 | 71 | 27 | 0.0 | 0.0 | 0.00 | 0.00 | 0.00 | 49 | 1016.8 |
| 20260505061552 | 72 | 27 | 0.0 | 0.9 | 0.00 | 0.00 | 0.00 | 49 | 1016.6 |
| 20260505060036 | 70 | 237 | 0.0 | 0.9 | 0.00 | 0.00 | 0.00 | 48 | 1016.6 |
| 20260505054525 | 70 | 330 | 0.9 | 2.6 | 0.00 | 0.00 | 0.00 | 46 | 1016.5 |
| 20260505053018 | 70 | 6 | 0.9 | 3.5 | 0.00 | 0.00 | 0.00 | 46 | 1016.7 |
| 20260505051514 | 70 | 36 | 0.0 | 3.5 | 0.00 | 0.00 | 0.00 | 47 | 1016.7 |
| 20260505041555 | 69 | 24 | 0.9 | 2.6 | 0.00 | 0.00 | 0.00 | 45 | 1016.3 |
| 20260505040029 | 69 | 45 | 0.9 | 4.3 | 0.00 | 0.00 | 0.00 | 47 | 1016.0 |
| 20260505034524 | 69 | 344 | 0.0 | 1.7 | 0.00 | 0.00 | 0.00 | 47 | 1016.1 |
| 20260505033021 | 68 | 358 | 0.9 | 4.3 | 0.00 | 0.00 | 0.00 | 45 | 1016.2 |
| 20260505031518 | 68 | 254 | 0.0 | 2.6 | 0.00 | 0.00 | 0.00 | 49 | 1016.4 |
| 20260505030002 | 66 | 192 | 0.0 | 7.0 | 0.00 | 0.00 | 0.00 | 51 | 1016.6 |
| 20260505024552 | 66 | 145 | 0.9 | 6.1 | 0.00 | 0.00 | 0.00 | 51 | 1016.7 |
| 20260505023045 | 66 | 16 | 0.9 | 7.8 | 0.00 | 0.00 | 0.00 | 56 | 1016.9 |
| 20260505021523 | 65 | 319 | 0.9 | 7.0 | 0.00 | 0.00 | 0.00 | 56 | 1017.2 |
| 20260505020009 | 64 | 216 | 2.6 | 7.8 | 0.00 | 0.00 | 0.00 | 55 | 1017.3 |
| 20260505014558 | 63 | 58 | 2.6 | 7.0 | 0.00 | 0.00 | 0.00 | 56 | 1017.4 |
| 20260505013044 | 63 | 126 | 1.7 | 5.2 | 0.00 | 0.00 | 0.00 | 60 | 1017.4 |
| 20260505011534 | 63 | 90 | 0.9 | 5.2 | 0.00 | 0.00 | 0.00 | 59 | 1017.7 |
| 20260505010016 | 62 | 89 | 2.6 | 10.4 | 0.00 | 0.00 | 0.00 | 58 | 1017.8 |
| 20260505004603 | 62 | 143 | 0.9 | 4.3 | 0.00 | 0.00 | 0.00 | 65 | 1018.2 |
| 20260505003046 | 61 | 66 | 1.7 | 5.2 | 0.00 | 0.00 | 0.00 | 63 | 1018.0 |
| 20260505001545 | 61 | 332 | 0.9 | 4.3 | 0.00 | 0.00 | 0.00 | 65 | 1018.2 |
| 20260505000032 | 60 | 324 | 0.9 | 2.6 | 0.00 | 0.00 | 0.00 | 67 | 1018.4 |
| 20260504234523 | 59 | 208 | 0.0 | 2.6 | 0.00 | 0.00 | 0.00 | 69 | 1018.4 |
| 20260504233022 | 57 | 32 | 0.0 | 2.6 | 0.00 | 0.00 | 0.00 | 73 | 1018.3 |
| 20260504231525 | 56 | 298 | 0.0 | 1.7 | 0.00 | 0.00 | 0.00 | 74 | 1018.2 |
| 20260504230051 | 55 | 236 | 0.0 | 2.6 | 0.00 | 0.00 | 0.00 | 76 | 1018.3 |
| 20260504224544 | 54 | 94 | 0.0 | 6.1 | 0.00 | 0.00 | 0.00 | 75 | 1018.3 |
| 20260504223038 | 53 | 31 | 0.0 | 5.2 | 0.00 | 0.00 | 0.00 | 79 | 1018.1 |
| 20260504221535 | 52 | 349 | 0.0 | 2.6 | 0.00 | 0.00 | 0.00 | 80 | 1017.7 |
| 20260504220034 | 51 | 113 | 0.0 | 0.9 | 0.00 | 0.01 | 0.00 | 79 | 1017.5 |
| 20260504214527 | 50 | 25 | 0.0 | 1.7 | 0.00 | 0.01 | 0.00 | 80 | 1017.3 |
| 20260504213024 | 50 | 309 | 0.0 | 0.9 | 0.00 | 0.01 | 0.00 | 80 | 1017.2 |
| 20260504211522 | 49 | 321 | 0.0 | 1.7 | 0.00 | 0.01 | 0.00 | 83 | 1016.8 |
| 20260504210016 | 48 | 264 | 0.0 | 1.7 | 0.00 | 0.01 | 0.00 | 82 | 1016.6 |
| 20260504204517 | 49 | 330 | 0.0 | 2.6 | 0.00 | 0.01 | 0.00 | 80 | 1016.7 |
| 20260504203020 | 49 | 299 | 0.0 | 0.9 | 0.00 | 0.01 | 0.00 | 81 | 1016.4 |
| 20260504201506 | 49 | 300 | 0.0 | 0.9 | 0.00 | 0.01 | 0.00 | 82 | 1016.3 |
| 20260504200044 | 49 | 307 | 0.0 | 0.9 | 0.00 | 0.01 | 0.00 | 82 | 1016.3 |
| 20260504194548 | 49 | 297 | 0.0 | 1.7 | 0.00 | 0.01 | 0.00 | 82 | 1016.2 |
| 20260504193019 | 50 | 15 | 0.0 | 0.9 | 0.00 | 0.01 | 0.00 | 82 | 1015.7 |
| 20260504191502 | 50 | 6 | 0.0 | 3.5 | 0.00 | 0.01 | 0.00 | 81 | 1015.7 |
| 20260504190117 | 50 | 301 | 0.0 | 0.9 | 0.00 | 0.01 | 0.00 | 81 | 1015.7 |
| 20260504184541 | 51 | 6 | 0.0 | 0.9 | 0.00 | 0.01 | 0.00 | 81 | 1015.8 |
| 20260504183028 | 50 | 347 | 0.0 | 1.7 | 0.00 | 0.01 | 0.00 | 83 | 1015.6 |
| 20260504181514 | 50 | 250 | 0.0 | 0.9 | 0.00 | 0.01 | 0.00 | 84 | 1015.2 |
| 20260504180007 | 51 | 23 | 0.0 | 0.9 | 0.00 | 0.01 | 0.00 | 84 | 1015.1 |
| 20260504174504 | 51 | 345 | 0.0 | 0.9 | 0.00 | 0.01 | 0.00 | 84 | 1015.2 |
| 20260504173003 | 51 | 316 | 0.0 | 0.9 | 0.00 | 0.01 | 0.00 | 85 | 1015.2 |
| 20260504171552 | 51 | 110 | 0.0 | 0.9 | 0.00 | 0.01 | 0.00 | 84 | 1015.2 |
| 20260504081515 | 61 | 240 | 0.0 | 2.6 | 0.00 | 0.01 | 0.01 | 87 | 1013.8 |